Somerville, NJ

5:48 PM EDT on September 25, 2017 (GMT -0400)
Somerset

Weather History for KSMQ - June, 2012

Change the Weather History Date:

Tuesday, June 26, 2012

  Actual Average Record
Temperature  
Mean Temperature 65 °F -  
Max Temperature 75 °F 82 °F 101 °F (1952)
Min Temperature 54 °F 57 °F 44 °F (1979)
Growing Degree Days 15 (Base 50)    
Moisture  
Dew Point 46 °F    
Average Humidity 53    
Maximum Humidity 86    
Minimum Humidity 33    
Precipitation  
Precipitation 0.00 in - - ()
Sea Level Pressure  
Sea Level Pressure 29.74 in    
Wind  
Wind Speed 6 mph (NW)    
Max Wind Speed 17 mph    
Max Gust Speed 29 mph    
Visibility 10 miles    
Events      
Averages and records for this station are not official NWS values.
T = Trace of Precipitation, MM = Missing Value Source: NWS Daily Summary

Daily Weather History Graph

Daily Weather History Graph

Search for Another Location

Airport or City:

Trip Planner

Search our weather history database for the weather conditions in past years. The results will help you decide how hot, cold, wet, or windy it might be!

Date:

Astronomy

Jun. 26, 2012 Rise Set
Actual Time 5:29 AM EDT 8:33 PM EDT
Civil Twilight 4:56 AM EDT 9:06 PM EDT
Nautical Twilight 4:13 AM EDT 9:49 PM EDT
Astronomical Twilight 3:23 AM EDT 10:39 PM EDT
Moon 12:45 PM EDT (6/26) No Moon Set
Length of Visible Light 16h 10m
Length of Day
15h 04m
Waxing Crescent, 45% of the Moon is Illuminated
Jun 26
Waxing Crescent
Jun 26
First Quarter
Jul 3
Full
Jul 10
Last Quarter
Jul 19
New

Hourly Weather History & Observations

Time (EDT) Temp. Dew Point Humidity Pressure Visibility Wind Dir Wind Speed Gust Speed Precip Events Conditions
12:53 AM 61.0 °F 48.0 °F 62% 29.74 in 10.0 mi NW 8.1 mph - N/A   Clear
1:53 AM 59.0 °F 46.9 °F 64% 29.73 in 10.0 mi Calm Calm - N/A   Clear
2:53 AM 59.0 °F 44.1 °F 58% 29.73 in 10.0 mi NW 6.9 mph - N/A   Clear
3:53 AM 57.0 °F 44.1 °F 62% 29.71 in 10.0 mi NW 4.6 mph - N/A   Clear
4:53 AM 57.0 °F 44.1 °F 62% 29.72 in 10.0 mi Calm Calm - N/A   Clear
5:53 AM 57.0 °F 44.1 °F 62% 29.74 in 10.0 mi NW 6.9 mph - N/A   Clear
6:53 AM 59.0 °F 45.0 °F 60% 29.74 in 10.0 mi Calm Calm - N/A   Clear
7:53 AM 61.0 °F 46.9 °F 60% 29.73 in 10.0 mi Variable 5.8 mph - N/A   Clear
8:53 AM 64.0 °F 46.9 °F 54% 29.74 in 10.0 mi Variable 5.8 mph 16.1 mph N/A   Scattered Clouds
9:53 AM 68.0 °F 48.0 °F 49% 29.73 in 10.0 mi NNW 12.7 mph 24.2 mph N/A   Scattered Clouds
10:53 AM 66.9 °F 48.0 °F 51% 29.73 in 10.0 mi NNW 17.3 mph 28.8 mph N/A   Mostly Cloudy
11:53 AM 68.0 °F 48.9 °F 50% 29.73 in 10.0 mi WNW 9.2 mph - N/A   Overcast
12:53 PM 71.1 °F 48.0 °F 44% 29.72 in 10.0 mi NNW 11.5 mph 23.0 mph N/A   Overcast
1:53 PM 71.1 °F 46.0 °F 41% 29.73 in 10.0 mi NW 12.7 mph 21.9 mph N/A   Overcast
2:53 PM 72.0 °F 46.0 °F 40% 29.71 in 10.0 mi NW 9.2 mph - N/A   Overcast
3:53 PM 73.0 °F 45.0 °F 37% 29.71 in 10.0 mi NNW 10.4 mph 19.6 mph N/A   Overcast
4:53 PM 73.0 °F 45.0 °F 37% 29.71 in 10.0 mi NW 10.4 mph - N/A   Mostly Cloudy
5:53 PM 75.0 °F 46.0 °F 36% 29.71 in 10.0 mi WNW 9.2 mph 21.9 mph N/A   Scattered Clouds
6:53 PM 73.0 °F 42.1 °F 33% 29.73 in 10.0 mi NNW 8.1 mph - N/A   Partly Cloudy
7:53 PM 72.0 °F 44.1 °F 37% 29.75 in 10.0 mi North 3.5 mph - N/A   Scattered Clouds
8:53 PM 66.9 °F 48.0 °F 51% 29.77 in 10.0 mi NNW 3.5 mph - N/A   Overcast
9:53 PM 61.0 °F 48.9 °F 64% 29.79 in 10.0 mi Calm Calm - N/A   Clear
10:53 PM 55.9 °F 50.0 °F 80% 29.78 in 10.0 mi Calm Calm - N/A   Clear
11:53 PM 54.0 °F 50.0 °F 86% 29.78 in 10.0 mi Calm Calm - N/A   Clear